Location: Big Meadows
(38.5260°N, 78.4400°W)
Time: 22:29:50
(UTC-05:00)

Amateur Radio Satellites - All Passes

Search period start: 01 March 2015 21:59
Search period end: 02 March 2015 21:59
Location: Big Meadows, 38.5260°N, 78.4400°W

Satellite Date Start Highest point End Downlink Frequencies (MHz)
Time Altitude Azimuth
AAUSAT CUBESAT 2 01 Mar 22:01:16 22:02:27 11° 271° (W) 22:03:21 437.432
GONETS M04 01 Mar 22:01:25 22:10:02 74° 94° (E) 22:18:43
AISAT 01 Mar 22:02:01 22:06:29 68° 75° (ENE) 22:10:58 437.250
DX 1 01 Mar 22:04:11 22:08:22 43° 261° (W) 22:12:35 434.975-435.025
CUBEBUG 1 01 Mar 22:09:56 22:13:53 33° 71° (ENE) 22:17:54 437.445
VELOX 1 01 Mar 22:12:03 22:16:32 85° 79° (E) 22:21:04 145.980
POLYITAN 1 01 Mar 22:15:13 22:17:34 15° 91° (E) 22:20:04 437.675
POPSAT HIP 1 01 Mar 22:16:18 22:18:40 15° 91° (E) 22:21:11 437.405
RS-15 01 Mar 22:18:45 22:27:52 34° 107° (ESE) 22:37:20 29.354- 29.394
ESTCUBE 1 01 Mar 22:23:36 22:27:58 52° 74° (ENE) 22:32:25 437.505/2401.250
FUNcube-1 01 Mar 22:24:59 22:28:43 26° 265° (W) 22:32:20 145.935
ZACube-1 01 Mar 22:25:52 22:29:35 25° 265° (W) 22:33:08 437.345
UKube-1 01 Mar 22:36:15 22:39:34 21° 266° (W) 22:42:48 .
HUMSAT D 01 Mar 22:37:18 22:41:10 34° 263° (W) 22:44:58 437.325/437.525
UNISAT 6 01 Mar 22:38:27 22:42:39 52° 99° (E) 22:46:54 437.425
NANOSAT C BR1 01 Mar 22:38:57 22:42:33 27° 95° (E) 22:46:11 145.865
UWE-3 01 Mar 22:44:09 22:46:35 14° 269° (W) 22:48:46 435.000/436.395/437.385
50 SAT 01 Mar 22:45:33 22:49:17 36° 262° (W) 22:52:58 437.505
SPROUT 01 Mar 22:47:13 22:50:24 21° 69° (ENE) 22:53:42 437.525
TISAT 1 01 Mar 22:54:48 22:58:07 23° 69° (ENE) 23:01:32 437.305
CUSAT 1 01 Mar 23:03:41 23:08:17 21° 94° (E) 23:12:19 437.405
TIGRISAT 01 Mar 23:04:02 23:08:19 80° 283° (WNW) 23:12:38 435.000
PHONESAT 2.4 01 Mar 23:10:48 23:14:23 61° 201° (SSW) 23:17:57 2401.200-2431.200
QB50P1 01 Mar 23:11:03 23:15:17 68° 101° (E) 23:19:27 145.935-145.965
PCSat 01 Mar 23:11:19 23:12:30 10° 322° (NW) 23:13:23 145.827
QB50P2 01 Mar 23:14:30 23:18:45 76° 102° (ESE) 23:22:57 145.880/145.840
VERMONT LUNAR 01 Mar 23:14:54 23:18:02 31° 208° (SSW) 23:21:07 437.305
ANTELSAT 01 Mar 23:17:07 23:21:19 55° 286° (WNW) 23:25:33 437.575/2403.000
BUGSAT 1 01 Mar 23:27:01 23:31:12 77° 101° (ESE) 23:35:17 437.445
DUCHIFAT 1 01 Mar 23:30:35 23:34:47 72° 284° (WNW) 23:38:58 145.980
SWISSCUBE 01 Mar 23:41:01 23:43:18 14° 64° (ENE) 23:45:49 437.505
AISAT 01 Mar 23:43:00 23:43:40 10° 272° (W) 23:44:00 437.250
CUBEBUG 1 01 Mar 23:46:56 23:50:21 21° 267° (W) 23:53:39 437.445
BEESAT 01 Mar 23:49:24 23:52:06 16° 65° (ENE) 23:54:58 436.000
POLYITAN 1 01 Mar 23:49:46 23:53:46 41° 287° (WNW) 23:57:42 437.675
POPSAT HIP 1 01 Mar 23:50:50 23:54:49 40° 287° (WNW) 23:58:45 437.405
GONETS M04 02 Mar 00:01:16 00:07:53 22° 295° (WNW) 00:14:10
ESTCUBE 1 02 Mar 00:02:53 00:05:15 14° 270° (W) 00:07:24 437.505/2401.250
DANDE 02 Mar 00:08:13 00:15:24 68° 98° (E) 00:20:51 436.750
ITUPSAT 1 02 Mar 00:14:41 00:18:38 27° 69° (ENE) 00:22:42 437.325
NANOSAT C BR1 02 Mar 00:14:58 00:18:20 23° 291° (WNW) 00:21:34 145.865
UNISAT 6 02 Mar 00:16:58 00:19:05 13° 294° (WNW) 00:21:02 437.425
SPROUT 02 Mar 00:22:24 00:26:20 32° 264° (W) 00:30:14 437.525
RS-15 02 Mar 00:28:48 00:39:38 64° 307° (NW) 00:50:36 29.354- 29.394
TISAT 1 02 Mar 00:30:04 00:33:49 28° 264° (W) 00:37:32 437.305
SO-50 02 Mar 00:33:08 00:34:25 11° 108° (ESE) 00:35:59 436.795
Oscar 19 02 Mar 00:42:43 00:46:06 18° 91° (E) 00:49:40 437.125/150
CUSAT 1 02 Mar 00:44:45 00:51:08 48° 281° (W) 00:56:00 437.405
QB50P1 02 Mar 00:50:06 00:50:40 10° 295° (WNW) 00:50:58 145.935-145.965
PHONESAT 2.4 02 Mar 00:50:21 00:52:26 14° 215° (SW) 00:54:26 2401.200-2431.200
SWISSCUBE 02 Mar 01:15:59 01:20:42 63° 259° (W) 01:25:28 437.505
BEESAT 02 Mar 01:24:52 01:29:32 55° 260° (W) 01:34:15 436.000
Gurwin Techsat 1B 02 Mar 01:44:58 01:48:28 18° 91° (E) 01:52:10 435.225
KKS-1 02 Mar 01:51:18 01:55:38 53° 74° (ENE) 02:00:01 437.445
ITUPSAT 1 02 Mar 01:52:17 01:56:29 29° 265° (W) 02:00:38 437.325
DANDE 02 Mar 01:54:31 01:58:53 17° 288° (WNW) 02:02:22 436.750
STARS 02 Mar 01:59:59 02:04:09 42° 72° (ENE) 02:08:21 437.465
YUBILEINY 02 Mar 02:05:49 02:12:21 23° 65° (ENE) 02:19:11 435.215
SO-50 02 Mar 02:09:49 02:14:23 72° 303° (WNW) 02:19:08 436.795
BEESAT 3 02 Mar 02:15:35 02:19:36 49° 55° (NE) 02:23:34 437.485
ITAMSAT 1 02 Mar 02:17:01 02:22:05 50° 99° (E) 02:27:08 435.822/435.867
Oscar 19 02 Mar 02:20:51 02:25:46 48° 288° (WNW) 02:30:41 437.125/150
AIST 2 02 Mar 02:32:45 02:36:21 26° 49° (NE) 02:39:58 435.215
AO-7 02 Mar 02:38:47 02:41:05 12° 86° (E) 02:44:09 29.400- 29.500
BEESAT 2 02 Mar 02:40:01 02:44:12 79° 58° (ENE) 02:48:17 435.950
RS-15 02 Mar 02:46:44 02:54:55 22° 336° (NNW) 03:02:59 29.354- 29.394
M-CUBED/EXP-1 PRIME 02 Mar 02:53:43 02:56:07 19° 65° (ENE) 02:58:40 437.505
JUGNU 02 Mar 02:55:17 02:56:25 11° 173° (S) 02:57:36 437.505
AUBIESAT-1 02 Mar 02:56:31 02:58:51 19° 64° (ENE) 03:01:19 437.475
MOZHAYETS 4 02 Mar 02:58:53 03:00:51 13° 65° (ENE) 03:03:03
Gurwin Techsat 1B 02 Mar 03:23:39 03:28:49 52° 288° (WNW) 03:33:56 435.225
KKS-1 02 Mar 03:30:26 03:32:41 13° 270° (W) 03:34:41 437.445
STARS 02 Mar 03:37:59 03:40:52 16° 268° (W) 03:43:34 437.465
HORYU 2 02 Mar 03:46:47 03:51:15 81° 103° (ESE) 03:55:43 437.375
SO-50 02 Mar 03:54:20 03:55:55 11° 323° (NW) 03:57:18 436.795
BEESAT 3 02 Mar 03:55:11 03:57:19 13° 250° (WSW) 03:59:14 437.485
ITAMSAT 1 02 Mar 03:57:30 04:01:15 20° 295° (WNW) 04:04:50 435.822/435.867
YUBILEINY 02 Mar 04:01:21 04:10:10 73° 266° (W) 04:18:55 435.215
AIST 2 02 Mar 04:11:15 04:14:58 29° 246° (WSW) 04:18:33 435.215
JAS-2 02 Mar 04:13:09 04:20:22 50° 98° (E) 04:27:58 435.910
AO-7 02 Mar 04:27:10 04:35:29 74° 105° (ESE) 04:43:46 29.400- 29.500
M-CUBED/EXP-1 PRIME 02 Mar 04:28:37 04:31:05 19° 261° (W) 04:33:31 437.505
PCSat 02 Mar 04:30:24 04:32:45 13° 41° (NE) 04:35:19 145.827
AUBIESAT-1 02 Mar 04:31:10 04:33:42 20° 261° (W) 04:36:14 437.475
MOZHAYETS 4 02 Mar 04:33:08 04:37:38 60° 260° (W) 04:42:10
JUGNU 02 Mar 04:42:27 04:44:34 12° 183° (S) 04:46:39 437.505
SRMSAT 02 Mar 04:43:12 04:44:50 11° 174° (S) 04:46:30 437.500
CUBESAT XI-V 02 Mar 04:54:29 04:57:26 17° 67° (ENE) 05:00:33 437.345
RS-15 02 Mar 05:06:12 05:13:06 18° 12° (NNE) 05:20:22 29.354- 29.394
Cubesat XI-IV 02 Mar 05:38:28 05:42:34 23° 93° (E) 05:46:47 437.490
CUTE-I 02 Mar 05:47:25 05:51:52 27° 94° (E) 05:56:24 437.470
PRISM 02 Mar 05:56:21 06:00:29 85° 77° (ENE) 06:04:40 437.425
JAS-2 02 Mar 05:58:37 06:05:11 35° 293° (WNW) 06:11:57 435.910
YUBILEINY 02 Mar 06:02:27 06:05:39 12° 283° (WNW) 06:08:04 435.215
PCSat 02 Mar 06:11:43 06:17:10 78° 60° (ENE) 06:22:35 145.827
STRAND 1 02 Mar 06:18:00 06:23:08 79° 75° (ENE) 06:28:19 437.568
AO-7 02 Mar 06:21:10 06:27:37 25° 303° (WNW) 06:33:49 29.400- 29.500
CUBESAT XI-V 02 Mar 06:30:02 06:34:32 47° 261° (W) 06:39:06 437.345
SRMSAT 02 Mar 06:31:06 06:33:08 12° 184° (S) 06:35:08 437.500
Cubesat XI-IV 02 Mar 07:17:48 07:22:53 43° 289° (WNW) 07:27:53 437.490
AIST 1 02 Mar 07:18:44 07:23:04 80° 95° (E) 07:27:28
RS-15 02 Mar 07:19:19 07:29:51 42° 44° (NE) 07:40:58 29.354- 29.394
CUTE-I 02 Mar 07:27:09 07:32:02 36° 291° (WNW) 07:36:50 437.470
PCSat 02 Mar 07:57:37 08:00:00 13° 256° (WSW) 08:02:03 145.827
STRAND 1 02 Mar 08:01:41 08:03:04 11° 273° (W) 08:04:03 437.568
BRITE-PL 02 Mar 08:10:58 08:14:57 30° 95° (E) 08:18:46 437.365/2234.400
COMPASS 1 02 Mar 08:11:06 08:12:37 12° 89° (E) 08:14:22 437.405
GONETS M04 02 Mar 08:13:49 08:21:27 34° 71° (ENE) 08:29:17
GOMX 1 02 Mar 08:19:12 08:22:41 24° 93° (E) 08:26:07 467.674
HO-68 02 Mar 08:21:49 08:28:15 35° 96° (E) 08:34:46 435.675
ISS 02 Mar 08:26:00 08:28:47 27° 134° (SE) 08:31:36 145.825
SEEDS 02 Mar 08:35:47 08:39:28 29° 96° (E) 08:43:12 437.485
CANX-2 02 Mar 08:37:48 08:41:49 41° 98° (E) 08:45:52 2200.000
O/OREOS (USA 219) 02 Mar 08:51:05 08:55:05 31° 104° (ESE) 08:59:10 437.305
CUTE 1.7 + AOD 2 02 Mar 08:56:21 09:00:34 62° 100° (E) 09:04:47 437.475
DOVE 4 02 Mar 08:56:26 09:00:29 42° 98° (E) 09:04:26 437.250
SO-50 02 Mar 09:04:21 09:05:59 12° 37° (NE) 09:07:49 436.795
CINEMA 3 02 Mar 09:08:59 09:12:37 30° 96° (E) 09:16:18 145.822/145.860
POLYITAN 1 02 Mar 09:09:02 09:09:53 11° 65° (ENE) 09:10:59 437.675
POPSAT HIP 1 02 Mar 09:09:50 09:10:42 11° 65° (ENE) 09:11:48 437.405
DELFI C3 02 Mar 09:18:52 09:22:06 23° 94° (E) 09:25:25 145.870
Oscar 11 02 Mar 09:30:40 09:34:45 41° 98° (E) 09:38:52 145.826/435.025
NANOSAT C BR1 02 Mar 09:31:00 09:33:57 19° 68° (ENE) 09:37:01 145.865
RS-15 02 Mar 09:31:39 09:42:56 62° 246° (WSW) 09:54:37 29.354- 29.394
CUBEBUG 2 02 Mar 09:33:24 09:37:05 31° 96° (E) 09:40:48 437.445
UNISAT 6 02 Mar 09:36:17 09:40:23 39° 73° (ENE) 09:44:28 437.425
AAUSAT CUBESAT 2 02 Mar 09:42:24 09:46:34 63° 284° (WNW) 09:50:43 437.432
COMPASS 1 02 Mar 09:44:36 09:48:42 51° 286° (WNW) 09:52:47 437.405
BRITE-PL 02 Mar 09:49:50 09:53:21 22° 292° (WNW) 09:56:36 437.365/2234.400
DX 1 02 Mar 09:54:05 09:58:03 34° 97° (E) 10:02:02 434.975-435.025
AISAT 02 Mar 09:56:06 09:58:26 14° 91° (E) 10:00:58 437.250
GOMX 1 02 Mar 09:57:11 10:00:51 26° 291° (WNW) 10:04:17 467.674
TIGRISAT 02 Mar 10:01:18 10:05:43 75° 76° (ENE) 10:10:04 435.000
ISS 02 Mar 10:02:17 10:05:10 29° 330° (NNW) 10:08:04 145.825
QB50P1 02 Mar 10:02:28 10:06:30 42° 73° (ENE) 10:10:34 145.935-145.965
VELOX 1 02 Mar 10:05:23 10:08:21 18° 92° (E) 10:11:27 145.980
QB50P2 02 Mar 10:06:02 10:10:09 47° 74° (ENE) 10:14:17 145.880/145.840
HO-68 02 Mar 10:09:22 10:16:04 42° 293° (WNW) 10:22:41 435.675
GONETS M04 02 Mar 10:10:16 10:18:38 51° 270° (W) 10:26:56
SEEDS 02 Mar 10:11:53 10:15:10 22° 290° (WNW) 10:18:21 437.485
FUNcube-1 02 Mar 10:14:09 10:18:16 63° 101° (E) 10:22:23 145.935
ANTELSAT 02 Mar 10:14:36 10:19:02 75° 258° (WSW) 10:23:23 437.575/2403.000
CANX-2 02 Mar 10:14:47 10:17:29 16° 292° (WNW) 10:20:01 2200.000
ZACube-1 02 Mar 10:15:11 10:19:19 66° 101° (E) 10:23:28 437.345
BUGSAT 1 02 Mar 10:15:35 10:19:38 43° 73° (ENE) 10:23:43 437.445
ESTCUBE 1 02 Mar 10:19:53 10:21:39 12° 89° (E) 10:23:41 437.505/2401.250
DUCHIFAT 1 02 Mar 10:21:26 10:25:42 69° 76° (ENE) 10:29:57 145.980
HUMSAT D 02 Mar 10:22:47 10:26:39 39° 98° (E) 10:30:32 437.325/437.525
UKube-1 02 Mar 10:24:04 10:28:25 73° 102° (ESE) 10:32:44 .
50 SAT 02 Mar 10:25:35 10:29:01 28° 96° (E) 10:32:29 437.505
O/OREOS (USA 219) 02 Mar 10:30:49 10:34:33 24° 301° (WNW) 10:38:15 437.305
UWE-3 02 Mar 10:33:13 10:37:19 60° 285° (WNW) 10:41:25 435.000/436.395/437.385
CUTE 1.7 + AOD 2 02 Mar 10:34:41 10:36:03 11° 294° (WNW) 10:37:11 437.475
DOVE 4 02 Mar 10:35:28 10:37:57 15° 294° (WNW) 10:40:13 437.250
POLYITAN 1 02 Mar 10:41:03 10:45:20 67° 259° (W) 10:49:37 437.675
POPSAT HIP 1 02 Mar 10:41:50 10:46:07 67° 259° (W) 10:50:23 437.405
SO-50 02 Mar 10:42:35 10:47:32 69° 57° (ENE) 10:52:26 436.795
CINEMA 3 02 Mar 10:46:38 10:49:44 20° 291° (WNW) 10:52:41 145.822/145.860
DELFI C3 02 Mar 10:53:54 10:57:17 25° 289° (WNW) 11:00:38 145.870
DANDE 02 Mar 10:53:56 10:56:04 21° 74° (ENE) 10:58:10 436.750
NANOSAT C BR1 02 Mar 11:05:39 11:09:37 35° 263° (W) 11:13:32 145.865
Oscar 11 02 Mar 11:07:52 11:10:40 17° 292° (WNW) 11:13:18 145.826/435.025
CUBEBUG 2 02 Mar 11:10:36 11:13:39 19° 291° (WNW) 11:16:34 437.445
UNISAT 6 02 Mar 11:14:26 11:17:23 17° 268° (W) 11:20:08 437.425
CUSAT 1 02 Mar 11:26:06 11:28:39 56° 263° (W) 11:31:17 437.405
DX 1 02 Mar 11:30:52 11:34:07 20° 292° (WNW) 11:37:14 434.975-435.025
AISAT 02 Mar 11:31:06 11:35:23 47° 287° (WNW) 11:39:37 437.250
CUBEBUG 1 02 Mar 11:36:07 11:40:33 82° 102° (ESE) 11:44:56 437.445
QB50P1 02 Mar 11:40:01 11:42:38 15° 269° (W) 11:45:05 145.935-145.965
VELOX 1 02 Mar 11:40:59 11:45:07 38° 288° (WNW) 11:49:11 145.980
QB50P2 02 Mar 11:44:07 11:46:23 14° 270° (W) 11:48:26 145.880/145.840
RS-15 02 Mar 11:50:46 11:53:39 11° 262° (W) 11:55:10 29.354- 29.394
BUGSAT 1 02 Mar 11:52:54 11:55:23 15° 269° (W) 11:57:42 437.445
FUNcube-1 02 Mar 11:53:23 11:54:10 10° 295° (WNW) 11:54:43 145.935
ESTCUBE 1 02 Mar 11:54:29 11:58:59 57° 286° (WNW) 12:03:27 437.505/2401.250
Oscar 19 02 Mar 11:58:10 12:02:10 24° 67° (ENE) 12:06:16 437.125/150
HUMSAT D 02 Mar 11:59:39 12:02:10 15° 292° (WNW) 12:04:31 437.325/437.525
50 SAT 02 Mar 12:00:59 12:03:53 19° 291° (WNW) 12:06:40 437.505
UKube-1 02 Mar 12:03:33 12:04:03 10° 296° (WNW) 12:04:19 .
SPROUT 02 Mar 12:10:14 12:14:23 46° 99° (E) 12:18:31 437.525
TISAT 1 02 Mar 12:15:47 12:19:53 48° 99° (E) 12:23:57 437.305
SO-50 02 Mar 12:25:06 12:27:36 13° 251° (WSW) 12:29:50 436.795
Gurwin Techsat 1B 02 Mar 13:04:30 13:08:47 26° 68° (ENE) 13:13:11 435.225
SWISSCUBE 02 Mar 13:18:00 13:22:27 37° 97° (E) 13:26:55 437.505
BEESAT 02 Mar 13:26:39 13:31:12 42° 98° (E) 13:35:44 436.000
ITAMSAT 1 02 Mar 13:33:28 13:38:37 66° 74° (ENE) 13:43:50 435.822/435.867
AO-7 02 Mar 13:35:37 13:40:45 19° 54° (NE) 13:46:15 29.400- 29.500
Oscar 19 02 Mar 13:36:32 13:41:20 38° 262° (W) 13:46:06 437.125/150
KKS-1 02 Mar 13:46:25 13:47:38 11° 89° (E) 13:49:08 437.445
SPROUT 02 Mar 13:47:41 13:50:08 15° 294° (WNW) 13:52:24 437.525
TISAT 1 02 Mar 13:53:04 13:55:19 14° 294° (WNW) 13:57:24 437.305
ITUPSAT 1 02 Mar 13:53:35 13:58:27 80° 104° (ESE) 14:03:15 437.325
JAS-2 02 Mar 14:27:26 14:30:18 15° 59° (ENE) 14:33:36 435.910
Gurwin Techsat 1B 02 Mar 14:43:41 14:48:37 37° 263° (W) 14:53:31 435.225
HORYU 2 02 Mar 14:43:42 14:48:05 62° 74° (ENE) 14:52:27 437.375
ISS 02 Mar 14:54:40 14:57:27 25° 29° (NNE) 15:00:14 145.825
SWISSCUBE 02 Mar 14:56:23 15:00:08 22° 293° (WNW) 15:03:45 437.505
BEESAT 02 Mar 15:05:16 15:08:47 20° 293° (WNW) 15:12:09 436.000
YUBILEINY 02 Mar 15:05:38 15:12:24 27° 84° (E) 15:19:29 435.215
ITAMSAT 1 02 Mar 15:15:56 15:18:42 14° 271° (W) 15:21:09 435.822/435.867
KKS-1 02 Mar 15:20:23 15:24:46 60° 285° (WNW) 15:29:07 437.445
AO-7 02 Mar 15:24:10 15:32:32 85° 72° (ENE) 15:40:55 29.400- 29.500
STARS 02 Mar 15:27:23 15:31:47 79° 283° (WNW) 15:36:09 437.465
ITUPSAT 1 02 Mar 15:34:14 15:35:45 11° 297° (WNW) 15:37:00 437.325
JAS-2 02 Mar 16:09:12 16:14:36 76° 258° (WSW) 16:20:40 435.910
M-CUBED/EXP-1 PRIME 02 Mar 16:09:47 16:13:26 27° 101° (ESE) 16:17:22 437.505
BEESAT 3 02 Mar 16:10:07 16:11:57 13° 110° (ESE) 16:13:59 437.485
AUBIESAT-1 02 Mar 16:12:02 16:15:38 25° 101° (E) 16:19:29 437.475
HORYU 2 02 Mar 16:23:59 16:25:14 11° 271° (W) 16:26:12 437.375
MOZHAYETS 4 02 Mar 16:29:52 16:34:07 35° 96° (E) 16:38:23
ISS 02 Mar 16:30:56 16:33:55 34° 225° (SW) 16:36:54 145.825
BEESAT 2 02 Mar 16:34:02 16:37:06 21° 112° (ESE) 16:40:18 435.950
Cubesat XI-IV 02 Mar 16:58:56 17:03:39 33° 69° (ENE) 17:08:28 437.490
YUBILEINY 02 Mar 17:00:04 17:08:41 61° 282° (WNW) 17:17:22 435.215
CUTE-I 02 Mar 17:07:44 17:12:40 39° 70° (ENE) 17:17:40 437.470
AO-7 02 Mar 17:20:50 17:26:25 18° 271° (W) 17:31:31 29.400- 29.500
AIST 1 02 Mar 17:28:33 17:31:27 18° 71° (ENE) 17:34:29
VERMONT LUNAR 02 Mar 17:35:31 17:38:52 45° 156° (SSE) 17:42:14 437.305
PHONESAT 2.4 02 Mar 17:38:21 17:41:26 26° 150° (SSE) 17:44:32 2401.200-2431.200
PRISM 02 Mar 17:42:12 17:44:14 14° 91° (E) 17:46:29 437.425
M-CUBED/EXP-1 PRIME 02 Mar 17:44:39 17:48:18 28° 293° (WNW) 17:52:06 437.505
BEESAT 3 02 Mar 17:45:39 17:49:38 51° 304° (NW) 17:53:41 437.485
AUBIESAT-1 02 Mar 17:46:43 17:50:27 29° 293° (WNW) 17:54:20 437.475
AIST 2 02 Mar 18:07:12 18:11:26 84° 123° (ESE) 18:15:46 435.215
MOZHAYETS 4 02 Mar 18:07:35 18:11:10 22° 291° (WNW) 18:14:38
BEESAT 2 02 Mar 18:11:21 18:15:07 33° 308° (NW) 18:18:54 435.950
CUBESAT XI-V 02 Mar 18:28:10 18:32:44 48° 98° (E) 18:37:16 437.345
STRAND 1 02 Mar 18:30:31 18:34:58 30° 95° (E) 18:39:29 437.568
Cubesat XI-IV 02 Mar 18:39:05 18:43:47 30° 265° (W) 18:48:25 437.490
CUTE-I 02 Mar 18:48:29 18:52:54 25° 266° (W) 18:57:12 437.470
HO-68 02 Mar 18:50:01 18:55:19 24° 61° (ENE) 19:00:51 435.675
O/OREOS (USA 219) 02 Mar 19:02:00 19:06:28 48° 65° (ENE) 19:10:54 437.305
AIST 1 02 Mar 19:05:15 19:09:19 36° 268° (W) 19:13:18
YUBILEINY 02 Mar 19:06:53 19:07:57 10° 306° (NW) 19:08:13 435.215
PCSat 02 Mar 19:12:51 19:14:19 11° 104° (ESE) 19:16:10 145.827
VERMONT LUNAR 02 Mar 19:13:16 19:16:45 67° 352° (N) 19:20:14 437.305
PRISM 02 Mar 19:15:58 19:20:02 46° 287° (WNW) 19:24:04 437.425
PHONESAT 2.4 02 Mar 19:16:01 19:19:40 89° 331° (NNW) 19:23:19 2401.200-2431.200
BRITE-PL 02 Mar 19:19:02 19:24:11 38° 72° (ENE) 19:29:12 437.365/2234.400
GOMX 1 02 Mar 19:25:03 19:29:33 29° 70° (ENE) 19:34:00 467.674
SEEDS 02 Mar 19:27:35 19:30:21 18° 69° (ENE) 19:33:16 437.485
CANX-2 02 Mar 19:29:58 19:33:23 25° 70° (ENE) 19:36:53 2200.000
CUTE 1.7 + AOD 2 02 Mar 19:48:06 19:51:57 36° 73° (ENE) 19:55:50 437.475
AIST 2 02 Mar 19:48:52 19:50:43 12° 319° (NW) 19:52:24 435.215
DOVE 4 02 Mar 19:59:54 20:04:43 42° 73° (ENE) 20:09:24 437.250
CUBESAT XI-V 02 Mar 20:06:45 20:09:50 17° 293° (WNW) 20:12:45 437.345
DELFI C3 02 Mar 20:07:13 20:08:55 13° 67° (ENE) 20:10:48 145.870
CINEMA 3 02 Mar 20:09:17 20:13:16 27° 71° (ENE) 20:17:11 145.822/145.860
STRAND 1 02 Mar 20:09:39 20:14:09 30° 291° (WNW) 20:18:33 437.568
Oscar 11 02 Mar 20:24:27 20:28:03 27° 71° (ENE) 20:31:44 145.826/435.025
CUBEBUG 2 02 Mar 20:30:37 20:34:14 25° 71° (ENE) 20:37:50 437.445
AAUSAT CUBESAT 2 02 Mar 20:31:49 20:35:56 71° 76° (ENE) 20:40:04 437.432
COMPASS 1 02 Mar 20:34:21 20:38:30 89° 78° (ENE) 20:42:41 437.405
HO-68 02 Mar 20:35:27 20:42:32 65° 258° (WSW) 20:49:40 435.675
O/OREOS (USA 219) 02 Mar 20:42:50 20:45:31 15° 260° (W) 20:47:59 437.305
DX 1 02 Mar 20:48:40 20:52:15 26° 69° (ENE) 20:55:56 434.975-435.025
VERMONT LUNAR 02 Mar 20:51:21 20:54:50 70° 8° (N) 20:58:19 437.305
PCSat 02 Mar 20:51:41 20:57:06 84° 296° (WNW) 21:02:35 145.827
AISAT 02 Mar 20:53:53 20:55:37 12° 65° (ENE) 20:57:35 437.250
PHONESAT 2.4 02 Mar 20:54:40 20:58:17 62° 2° (N) 21:01:53 2401.200-2431.200
BRITE-PL 02 Mar 20:57:52 21:02:44 28° 266° (W) 21:07:23 437.365/2234.400
SEEDS 02 Mar 21:02:08 21:05:58 34° 263° (W) 21:09:47 437.485
VELOX 1 02 Mar 21:02:38 21:05:05 15° 66° (ENE) 21:07:43 145.980
GOMX 1 02 Mar 21:02:39 21:07:35 34° 264° (W) 21:12:16 467.674
CANX-2 02 Mar 21:05:48 21:09:18 24° 266° (W) 21:12:43 2200.000
FUNcube-1 02 Mar 21:08:36 21:12:43 41° 74° (ENE) 21:16:47 145.935
ZACube-1 02 Mar 21:09:48 21:13:58 43° 74° (ENE) 21:18:04 437.345
50 SAT 02 Mar 21:12:07 21:14:26 16° 68° (ENE) 21:16:53 437.505
GONETS M04 02 Mar 21:13:10 21:20:57 40° 88° (E) 21:28:53
HUMSAT D 02 Mar 21:13:54 21:17:17 24° 70° (ENE) 21:20:43 437.325/437.525
UKube-1 02 Mar 21:17:33 21:21:46 51° 73° (ENE) 21:26:01 .
ESTCUBE 1 02 Mar 21:19:52 21:20:42 11° 64° (ENE) 21:21:48 437.505/2401.250
CUTE 1.7 + AOD 2 02 Mar 21:25:15 21:28:03 17° 268° (W) 21:30:43 437.475
UWE-3 02 Mar 21:28:38 21:33:08 90° 19° (NNE) 21:37:30 435.000/436.395/437.385
DOVE 4 02 Mar 21:38:42 21:42:39 21° 267° (W) 21:46:19 437.250
DELFI C3 02 Mar 21:39:52 21:43:46 47° 261° (W) 21:47:41 145.870
CINEMA 3 02 Mar 21:46:15 21:50:25 28° 265° (W) 21:54:24 145.822/145.860
